Weather History for Ankara, Turkey

Change the Weather History Date:

Sunday, February 3, 2013

  Actual Average Record
Temperature  
Mean Temperature 44 °F -  
Max Temperature 57 °F 42 °F 57 °F (2013)
Min Temperature 30 °F 22 °F -5 °F (1997)
Degree Days  
Heating Degree Days 22    
Moisture  
Dew Point 34 °F    
Average Humidity 71    
Maximum Humidity 93    
Minimum Humidity 36    
Precipitation  
Precipitation 0.00 in - - ()
Sea Level Pressure  
Sea Level Pressure 30.08 in    
Wind  
Wind Speed 4 mph ()    
Max Wind Speed 8 mph    
Max Gust Speed -    
Visibility 6.2 miles    
Events      
Averages and records for this station are not official NWS values.
T = Trace of Precipitation, MM = Missing Value Source: Averaged Metar Reports

Daily Weather History Graph

Daily Weather History Graph

Search for Another Location

Airport:

Trip Planner

Search our weather history database for the weather conditions in past years. The results will help you decide how hot, cold, wet, or windy it might be!

Date:

Astronomy

Feb. 03, 2013 Rise Set
Actual Time 6:54 AM EET 5:09 PM EET
Civil Twilight 6:26 AM EET 5:37 PM EET
Nautical Twilight 5:54 AM EET 6:10 PM EET
Astronomical Twilight 5:22 AM EET 6:42 PM EET
Moon No Moon Rise 10:32 AM EET (2/3)
Length of Visible Light 11h 11m
Length of Day
10h 14m
Waning Gibbous, 52% of the Moon is Illuminated
Feb 3
Waning Gibbous
Feb 3
Last Quarter
Feb 10
New
Feb 17
First Quarter
Feb 25
Full

Hourly Weather History & Observations

Time (EET) Temp. Windchill Dew Point Humidity Pressure Visibility Wind Dir Wind Speed Gust Speed Precip Events Conditions
12:20 AM 33.8 °F 28.6 °F 30.2 °F 87% 30.01 in 6.2 mi NE 5.8 mph - N/A   Mostly Cloudy
12:50 AM 35.6 °F - 30.2 °F 81% 30.01 in 5.0 mi Variable 2.3 mph - N/A   Mostly Cloudy
1:20 AM 33.8 °F - 30.2 °F 87% 30.01 in 5.6 mi Variable 2.3 mph - N/A   Mostly Cloudy
1:50 AM 35.6 °F - 30.2 °F 81% 30.01 in 5.0 mi Variable 2.3 mph - N/A   Mostly Cloudy
2:00 AM 35 °F - 30 °F 75% 30.09 in 5 mi East 2.3 mph - -   Mist
2:20 AM 33.8 °F - 30.2 °F 87% 30.04 in 5.0 mi Variable 2.3 mph - N/A   Scattered Clouds
2:50 AM 37.4 °F - 28.4 °F 70% 30.04 in - South 2.3 mph - N/A   Scattered Clouds
3:20 AM 32.0 °F - 30.2 °F 93% 30.04 in - NNE 2.3 mph - N/A   Scattered Clouds
3:50 AM 32.0 °F - 28.4 °F 87% 30.04 in 4.3 mi Variable 1.2 mph - N/A   Scattered Clouds
4:20 AM 33.8 °F 30.8 °F 30.2 °F 87% 30.04 in 5.0 mi SSW 3.5 mph - N/A   Scattered Clouds
4:50 AM 30.2 °F - 28.4 °F 93% 30.04 in 5.0 mi SW 1.2 mph - N/A   Partly Cloudy
5:20 AM 30.2 °F - 28.4 °F 93% 30.04 in 4.3 mi Variable 1.2 mph - N/A   Partly Cloudy
5:50 AM 30.2 °F 26.7 °F 28.4 °F 93% 30.06 in 5.0 mi North 3.5 mph - N/A   Partly Cloudy
6:20 AM 33.8 °F - 28.4 °F 81% 30.06 in 6.2 mi Variable 1.2 mph - N/A   Partly Cloudy
6:50 AM 32.0 °F - 28.4 °F 87% 30.06 in 6.2 mi Variable 2.3 mph - N/A   Partly Cloudy
7:20 AM 30.2 °F 25.4 °F 28.4 °F 93% 30.06 in 6.2 mi NNE 4.6 mph - N/A   Partly Cloudy
7:50 AM 33.8 °F 29.6 °F 28.4 °F 81% 30.09 in 6.2 mi ENE 4.6 mph - N/A   Scattered Clouds
8:20 AM 35.6 °F - 30.2 °F 81% 30.09 in 6.2 mi Variable 2.3 mph - N/A   Scattered Clouds
8:50 AM 33.8 °F 29.6 °F 32.0 °F 93% 30.09 in 6.2 mi North 4.6 mph - N/A   Scattered Clouds
9:20 AM 39.2 °F - 32.0 °F 75% 30.09 in 6.2 mi Variable 2.3 mph - N/A   Scattered Clouds
9:50 AM 41.0 °F - 32.0 °F 70% 30.09 in 6.2 mi Variable 2.3 mph - N/A   Scattered Clouds
10:20 AM 44.6 °F - 33.8 °F 66% 30.09 in 6.2 mi Variable 2.3 mph - N/A   Scattered Clouds
10:50 AM 48.2 °F - 33.8 °F 58% 30.09 in 6.2 mi South 4.6 mph - N/A   Scattered Clouds
11:20 AM 48.2 °F - 33.8 °F 58% 30.09 in 6.2 mi SW 6.9 mph - N/A   Scattered Clouds
11:50 AM 50.0 °F - 33.8 °F 54% 30.09 in 6.2 mi SW 8.1 mph - N/A   Scattered Clouds
12:20 PM 51.8 °F - 35.6 °F 54% 30.09 in 6.2 mi SSW 8.1 mph - N/A   Scattered Clouds
12:50 PM 51.8 °F - 35.6 °F 54% 30.09 in 6.2 mi Variable 5.8 mph - N/A   Scattered Clouds
1:20 PM 53.6 °F - 37.4 °F 54% 30.09 in 6.2 mi SE 3.5 mph - N/A   Scattered Clouds
1:50 PM 57.2 °F - 37.4 °F 48% 30.06 in 6.2 mi South 4.6 mph - N/A   Scattered Clouds
2:00 PM 56 °F - 36 °F 36% 30.11 in 12 mi South 4.6 mph - -   Scattered Clouds
2:20 PM 57.2 °F - 37.4 °F 48% 30.06 in 6.2 mi SW 6.9 mph - N/A   Scattered Clouds
2:50 PM 57.2 °F - 39.2 °F 51% 30.06 in 6.2 mi SSW 8.1 mph - N/A   Scattered Clouds
3:20 PM 57.2 °F - 39.2 °F 51% 30.06 in 6.2 mi WSW 6.9 mph - N/A   Scattered Clouds
3:50 PM 57.2 °F - 39.2 °F 51% 30.06 in 6.2 mi WSW 5.8 mph - N/A   Scattered Clouds
4:20 PM 57.2 °F - 39.2 °F 51% 30.06 in 6.2 mi Variable 2.3 mph - N/A   Scattered Clouds
4:50 PM 55.4 °F - 39.2 °F 54% 30.06 in 6.2 mi South 5.8 mph - N/A   Scattered Clouds
5:20 PM 53.6 °F - 41.0 °F 62% 30.06 in 6.2 mi SSE 5.8 mph - N/A   Scattered Clouds
5:50 PM 50.0 °F - 39.2 °F 66% 30.06 in 6.2 mi SE 8.1 mph - N/A   Scattered Clouds
6:20 PM 50.0 °F - 39.2 °F 66% 30.09 in 6.2 mi SE 6.9 mph - N/A   Scattered Clouds
6:50 PM 50.0 °F - 37.4 °F 62% 30.09 in 6.2 mi ESE 8.1 mph - N/A   Scattered Clouds
7:20 PM 50.0 °F - 37.4 °F 62% 30.09 in - ESE 5.8 mph - N/A   Clear
7:50 PM 48.2 °F - 37.4 °F 66% 30.09 in - ESE 6.9 mph - N/A   Clear
8:00 PM 48 °F - 37 °F 55% 30.17 in 12 mi ESE 6.9 mph - -  
8:20 PM 42.8 °F - 35.6 °F 76% 30.12 in - North 2.3 mph - N/A   Clear
8:50 PM 41.0 °F - 35.6 °F 81% 30.12 in - Variable 2.3 mph - N/A   Clear
9:20 PM 44.6 °F - 37.4 °F 76% 30.12 in - Variable 2.3 mph - N/A   Clear
9:50 PM 42.8 °F - 37.4 °F 81% 30.12 in - Variable 2.3 mph - N/A   Clear
10:20 PM 41.0 °F 35.8 °F 33.8 °F 76% 30.12 in - South 8.1 mph - N/A   Clear
10:50 PM 42.8 °F 38.6 °F 35.6 °F 76% 30.12 in - South 6.9 mph - N/A   Clear
11:20 PM 37.4 °F - 35.6 °F 93% 30.15 in - Variable 1.2 mph - N/A   Clear
11:50 PM 42.8 °F 38.0 °F 35.6 °F 76% 30.15 in - South 8.1 mph - N/A   Clear